Temp
2 2 2 1 1 1 0 0 0 -0 0 0 1 1 1 2 3 3 3 4 5 5
1 1 1 1 0 0 -0 -0 -0 -0 -0 -0 0 1 1 1 2 1 2 2 3 4
1 1 0 0 -0 -0 -0 -1 -1 -1 -0 -0 0 -0 0 0 0 0 -0 0 1 1
1 1 0 -0 -1 -1 -1 -1 -1 -1 -1 -0 -0 -0 -0 -0 -1 -1 -1 -1 -1 -1
1 1 1 -0 -1 -1 -2 -2 -2 -1 -1 -1 -1 -1 -1 -1 -1 -1 -2 -2 -2 -2
2 1 1 1 0 -0 -0 -0 -1 -0 -0 -1 -2 -2 -1 -0 -0 -1 -2 -2 -2 -3
1 1 0 -0 0 -0 -0 -0 -0 0 -0 -1 -2 -4 -2 -1 -1 -1 -2 -2 -2 -3
0 -0 -1 -1 -1 -1 -1 -1 -2 -1 -1 -2 -3 -5 -4 -2 -1 -2 -2 -3 -2 -3
-1 -1 -2 -2 -2 -2 -2 -3 -3 -2 -3 -4 -4 -6 -5 -3 -3 -4 -4 -4 -4 -3
-2 -3 -3 -3 -3 -4 -4 -4 -5 -5 -4 -5 -6 -7 -6 -4 -4 -4 -4 -5 -6 -5
-3 -3 -4 -4 -5 -5 -5 -5 -6 -6 -6 -6 -7 -7 -7 -5 -4 -5 -5 -6 -7 -7
-5 -5 -5 -5 -5 -5 -5 -5 -6 -6 -7 -7 -7 -8 -8 -6 -4 -5 -6 -6 -7 -9
-5 -6 -6 -6 -6 -6 -6 -6 -5 -6 -7 -7 -8 -8 -8 -9 -7 -6 -6 -6 -7 -9
-4 -5 -5 -5 -6 -6 -6 -5 -5 -5 -6 -7 -8 -9 -8 -9 -9 -8 -7 -8 -9 -9
Height
805 804 804 800 797 796 794 792 789 785 780 775 775 772 769 764 764 761 760 757 753 751
807 806 805 801 800 799 792 792 790 787 783 775 774 773 768 766 763 762 760 756 752 749
808 807 805 804 802 798 793 793 791 786 783 780 776 772 769 766 765 763 759 755 752 749
809 808 806 804 803 800 796 794 793 790 785 782 778 776 772 771 768 764 760 758 755 752
811 809 808 807 805 803 800 796 795 795 792 788 784 780 776 774 770 766 762 760 757 752
813 811 810 808 807 806 804 799 800 799 795 792 787 785 780 775 771 768 765 762 760 755
814 813 811 810 809 807 805 804 802 800 798 795 791 787 781 778 774 772 769 766 762 758
816 815 814 812 812 810 810 809 807 803 802 799 794 791 785 782 779 776 772 768 763 760
817 817 816 816 815 814 813 812 810 806 805 801 798 795 789 787 783 780 776 771 767 762
820 819 819 819 818 816 816 815 815 811 809 807 801 797 791 789 787 783 780 776 773 767
822 822 822 822 820 819 820 819 818 815 813 810 806 803 796 793 789 786 784 781 779 774
824 825 825 824 823 822 822 821 820 819 817 815 811 807 800 795 792 789 787 784 781 776
826 827 827 826 826 825 824 824 823 822 820 819 814 811 804 799 795 792 790 786 784 782
828 829 829 829 829 828 828 827 826 825 823 819 816 812 808 804 800 798 794 792 789 787
Wind_Speed
13 12 11 11 12 12 13 15 17 17 16 16 14 16 16 15 14 16 18 19 19 19
12 12 12 13 11 10 13 15 16 16 17 19 17 16 16 13 15 15 15 17 18 18
12 12 13 13 14 15 15 16 17 19 19 18 18 18 16 16 16 15 18 17 18 18
11 12 13 15 15 15 16 17 18 19 21 21 20 17 16 15 15 17 18 20 19 20
10 11 12 12 13 14 15 16 17 17 18 19 20 18 17 16 16 18 20 20 21 24
10 11 12 12 12 13 14 15 15 16 18 20 21 19 17 18 18 18 20 20 21 25
10 11 12 12 13 14 15 15 15 17 19 20 22 22 20 18 18 19 20 21 21 27
9 11 12 12 13 13 14 15 15 16 19 20 25 25 23 17 19 19 21 23 23 26
10 11 12 12 12 13 14 15 16 17 18 23 24 27 21 18 18 19 22 25 25 25
10 11 12 12 12 14 14 14 16 17 18 21 28 30 24 18 17 19 21 24 27 26
10 10 10 12 13 13 13 14 15 17 18 19 28 31 27 18 17 18 20 22 27 27
11 11 11 13 13 13 12 13 15 16 18 19 23 30 31 21 18 20 19 21 25 32
11 11 12 12 12 12 12 13 12 14 18 19 24 29 31 28 21 21 20 21 23 29
10 11 10 11 11 11 10 10 12 13 16 21 24 28 30 30 26 23 21 22 25 27
Wind_Direction
14 9 0 10 8 4 359 352 348 352 356 0 348 339 336 337 326 325 320 315 311 309
21 20 13 15 15 9 20 4 358 358 359 6 356 348 351 348 348 342 335 333 330 322
30 29 26 24 20 20 27 15 8 10 10 4 4 5 6 4 1 1 0 354 352 349
35 34 33 29 26 22 24 24 17 13 12 10 12 13 16 14 13 17 13 12 9 1
39 36 37 33 30 25 24 25 19 14 16 17 17 14 20 21 23 24 23 17 13 9
39 37 36 35 33 31 28 32 24 20 22 21 19 15 17 24 28 28 26 20 17 13
41 38 35 34 32 32 29 27 26 24 22 22 21 18 12 21 26 26 24 21 19 18
46 44 41 39 35 36 33 29 29 31 26 24 23 17 14 19 25 25 24 23 21 17
53 49 44 43 42 42 36 32 29 32 29 27 22 15 20 25 27 27 27 23 19 17
58 53 47 46 47 47 42 38 34 33 30 28 22 16 15 23 29 30 28 26 21 19
60 56 52 51 51 49 46 45 40 37 33 29 24 19 18 22 31 32 31 29 24 22
64 61 58 55 51 49 49 46 43 38 36 31 26 21 22 25 26 25 29 27 26 23
71 64 60 56 52 51 50 46 43 42 36 31 27 23 24 26 25 23 20 22 20 18
77 71 65 60 54 52 49 49 45 43 39 31 26 23 22 23 26 18 20 19 14 12